Regional Weather Roundup
Issued by NWS

Home | Current Version | Previous Version | Graphics & Text | Print | Product List | Glossary On
Versions: 1 2 3 4 5 6 7 8 9 10 11 12 13 14 15 16 17 18 19 20 21 22 23 24 25 26 27 28 29 30 31 32 33 34 35 36 37 38 39 40 41 42 43 44 45 46 47 48
000
ASUS45 KBOU 181410
RWRCO

WEATHER ROUNDUP FOR COLORADO
NATIONAL WEATHER SERVICE PUEBLO CO
800 AM MDT WED APR 18 2018

NOTE: "FAIR" INDICATES FEW OR NO CLOUDS BELOW 12000 FEET WITH NO
SIGNIFICANT WEATHER AND/OR OBSTRUCTIONS TO VISIBILITY.

COZ001>005-013-030-031-181500-
...NORTHWEST COLORADO...

CITY           SKY/WX    TMP DP  RH WIND       PRES   REMARKS
CRAIG          SUNNY     23  17  78 E5        30.32R WCI  17
HAYDEN         SUNNY     20  14  77 E8        30.33R WCI  10
MEEKER         SUNNY     23  15  71 NE5       30.32R WCI  17
RABBIT EARS PA NOT AVBL
STEAMBOAT SPGS FAIR      19  15  84 CALM      30.31R
WALDEN         FAIR      23  12  63 SW8       30.27S WCI  14
$$

COZ006>008-011-181500-
...WEST CENTRAL VALLEYS...

CITY           SKY/WX    TMP DP  RH WIND       PRES   REMARKS
GRAND JUNCTION SUNNY     36  20  52 E8        30.30R
MONTROSE       SUNNY     28  12  51 SE7       30.33R WCI  21
EAGLE          SUNNY     21  15  78 CALM      30.37R
RIFLE          MOSUNNY   26  21  81 NE3       30.34R
DELTA          NOT AVBL
NUCLA          FAIR      32   9  37 SE5       30.31S WCI  27
$$

COZ017>023-064>068-181500-
...SOUTHWEST COLORADO...

CITY           SKY/WX    TMP DP  RH WIND       PRES   REMARKS
DURANGO        SUNNY     26   4  38 E8        30.24R WCI  18
CORTEZ         SUNNY     27   2  34 NE8       30.25R WCI  19
PAGOSA SPRINGS FAIR      29   5  35 CALM      30.25R
TELLURIDE      SUNNY     22   2  41 E3        30.25R
WOLF CREEK PAS SUNNY     16 -20  19 CALM      30.28R
$$

COZ009-010-012-014-032>034-037-058>063-181500-
...CENTRAL COLORADO...

CITY           SKY/WX    TMP DP  RH WIND       PRES   REMARKS
ASPEN          SUNNY     21   9  59 SE6       30.30R WCI  13
BUENA VISTA    FAIR      27   5  38 N18G26    30.26R WCI  14
COPPER MTN     NOT AVBL
BERTHOUD PASS  CLOUDY     1  -8  66 N15G31    30.13R WCI -18
COTTONWOOD PAS SUNNY     27   1  33 W8        30.23R WCI  18
GUNNISON       SUNNY     21   9  59 E6        30.29S WCI  13
KREMMLING      SUNNY     34  16  47 CALM      30.32R
LEADVILLE      SUNNY     14   7  73 NE5       30.24R WCI   6
MONARCH PASS   NOT AVBL
SALIDA         FAIR      29   4  34 NW3       30.35R
SUNLIGHT       MOSUNNY   10   9  92 E5        30.29R WCI   2
WILKERSON PASS SUNNY     18  -8  32 N14G26    30.21R WCI   4
$$

COZ069>075-181500-
...SAN LUIS VALLEY/SANGRE DE CRISTO MOUNTAINS...

CITY           SKY/WX    TMP DP  RH WIND       PRES   REMARKS
ALAMOSA        SUNNY     26   5  40 CALM      30.27R
DEL NORTE      FAIR      26   2  35 SW6       30.27R WCI  20
LA VETA PASS   SUNNY     23  -4  30 SW7       30.33R WCI  15
SAGUACHE       NOT AVBL
$$

COZ035-036-038>040-181500-
...NORTHERN COLORADO FRONT RANGE...

CITY           SKY/WX    TMP DP  RH WIND       PRES   REMARKS
DENVER INTL AP MOSUNNY   40  11  30 NW5       30.23R
DMNS CITY PARK NOT AVBL
AURORA         MOSUNNY   38  11  33 SW6       30.24R
FRONT RANGE AP SUNNY     37  14  38 SW3       30.24R
ERIE MUNI ARPT FAIR      41   9  27 SE7       30.28R
BOULDER MUN AP FAIR      37  10  32 E6        30.22R
CENTENNIAL     MOSUNNY   37   8  30 VRB3      30.23R
BROOMFIELD     MOSUNNY   37  10  32 VRB5      30.23R
LOVELAND       SUNNY     41  13  31 N17       30.22R
LONGMONT       FAIR      43  12  28 SE10      30.25R
$$

COZ041-046-047-076>085-087-088-181500-
...PIKES PEAK/PALMER DIVIDE AND SOUTHERN FOOTHILLS...

CITY           SKY/WX    TMP DP  RH WIND       PRES   REMARKS
COLO. SPRINGS  SUNNY     38   5  25 NW8       30.23R
A. F. ACADEMY  NOT AVBL
SCHRIEVER AFB  NOT AVBL
CHEYENNE MTN   NOT AVBL
ELLICOTT         N/A    N/A N/A N/A N8        30.23R
FALCON         FAIR      36  -1  20 NW5       30.24R
FORT CARSON    NOT AVBL
LIMON          SUNNY     36  15  42 NW17G24   30.22R
MONUMENT HILL  SUNNY     32   5  32 W6        30.24R WCI  26
CANON CITY     FAIR      41   7  24 W10       30.25R
WALSENBURG     FAIR      37  12  35 S5        30.26R
TRINIDAD       SUNNY     36  15  42 W8        30.25R
$$

COZ042>045-048>051-090-091-181500-
...NORTHEAST COLORADO...

CITY           SKY/WX    TMP DP  RH WIND       PRES   REMARKS
GREELEY ARPT   SUNNY     40  15  36 NW13      30.25R
AKRON          SUNNY     38  20  48 NW26G37   30.18R
BURLINGTON     SUNNY     41  21  44 NW28G39   30.17R
WRAY           FAIR      43  25  49 NW21G31   30.15R
YUMA           NOT AVBL
STERLING       FAIR      43  23  45 NW23G29   30.17R
HOLYOKE        FAIR      41  27  56 NW18G26   30.14R
FORT MORGAN    FAIR      41  12  31 NW22G28   30.22R
$$

COZ086-089-092>099-181500-
...SOUTHEAST COLORADO...

CITY           SKY/WX    TMP DP  RH WIND       PRES   REMARKS
PUEBLO         SUNNY     38  12  34 SE5       30.25R
LA JUNTA       SUNNY     47   9  21 NW13      30.24R
LAMAR          SUNNY     47  18  31 NW14G21   30.20R
SPRINGFIELD      N/A     42  18  37 NW20G31   30.20R
$$





USA.gov is the U.S. government's official web portal to all federal, state and local government web resources and services.